Regional Weather Roundup
Issued by NWS

Home | Current Version | Previous Version | Graphics & Text | Print | Product List | Glossary On
Versions: 1 2 3 4 5 6 7 8 9 10 11 12 13 14 15 16 17 18 19 20 21 22 23 24 25 26 27 28 29 30 31 32 33 34 35 36 37 38 39 40 41 42 43 44 45 46 47 48 49
000
ASUS45 KBOU 061507
RWRCO

WEATHER ROUNDUP FOR COLORADO
NATIONAL WEATHER SERVICE DENVER/BOULDER CO
800 AM MST FRI MAR 06 2015

NOTE: "FAIR" INDICATES FEW OR NO CLOUDS BELOW 12000 FEET WITH NO
SIGNIFICANT WEATHER AND/OR OBSTRUCTIONS TO VISIBILITY.

COZ001>005-013-030-031-061600-
...NORTHWEST COLORADO...

CITY           SKY/WX    TMP DP  RH WIND       PRES   REMARKS
CRAIG          SUNNY     18  12  77 CALM      30.43S
HAYDEN         SUNNY     16   7  67 E10       30.42R WCI   3
MEEKER         SUNNY     24  13  62 CALM      30.44R
MOUNT WERNER   NOT AVBL
STEAMBOAT SPGS SUNNY      5   2  86 CALM      30.44R
WALDEN         SUNNY     21  10  63 S8        30.36R WCI  12
$$

COZ006>008-011-061600-
...WEST CENTRAL VALLEYS...

CITY           SKY/WX    TMP DP  RH WIND       PRES   REMARKS
GRAND JUNCTION SUNNY     29  19  66 SE13      30.46R WCI  19
MONTROSE       SUNNY     25  13  60 S8        30.48R WCI  16
EAGLE          SUNNY     21  16  79 CALM      30.51R
RIFLE          MOSUNNY   24  18  77 E5        30.48R WCI  18
DELTA          SUNNY     30  18  61 CALM      30.49R
NUCLA          NOT AVBL
$$

COZ017>023-064>068-061600-
...SOUTHWEST COLORADO...

CITY           SKY/WX    TMP DP  RH WIND       PRES   REMARKS
DURANGO        SUNNY     20  14  77 NE3       30.40R
CORTEZ         SUNNY     25  19  78 E6        30.42R WCI  18
PAGOSA SPRINGS SUNNY     17   9  70 CALM      30.40R
TELLURIDE      MOSUNNY   22   3  44 SE6       30.41R WCI  15
WOLF CREEK PAS SUNNY     23   0  36 SW3       30.45R
$$

COZ009-010-012-014-032>034-037-058>063-061600-
...CENTRAL COLORADO...

CITY           SKY/WX    TMP DP  RH WIND       PRES   REMARKS
ASPEN          MOSUNNY   16   7  67 S5        30.43R WCI   9
BUENA VISTA    MOSUNNY   22   5  48 CALM      30.39R
COPPER MTN     SUNNY     18  -4  38 SW9G20    30.37R WCI   6
BERTHOUD PASS  NOT AVBL
COTTONWOOD PAS MOSUNNY   30  -9  17 N5        30.37R WCI  25
GUNNISON       MOSUNNY    0  -8  71 CALM      30.52R
KREMMLING      MOSUNNY   10   5  79 CALM      30.49R
LEADVILLE      SUNNY     16  -3  43 E5        30.38R WCI   9
SALIDA         MOSUNNY   29   4  35 NW9       30.46R WCI  20
SUNLIGHT       MOSUNNY   21  12  68 NW5         N/A  WCI  15
WILKERSON PASS MOSUNNY   21  -8  27 NW13G24   30.37R WCI   9
$$

COZ069>075-061600-
...SAN LUIS VALLEY/SANGRE DE CRISTO MOUNTAINS...

CITY           SKY/WX    TMP DP  RH WIND       PRES   REMARKS
ALAMOSA        MOSUNNY   20  12  71 CALM      30.42R
LA VETA PASS   SUNNY     23   1  39 S12G20    30.35R WCI  12
SAGUACHE       MOSUNNY   23   7  50 N15       30.41R WCI  10
$$

COZ035-036-038>040-061600-
...NORTHERN COLORADO FRONT RANGE...

CITY           SKY/WX    TMP DP  RH WIND       PRES   REMARKS
DENVER INTL AP MOSUNNY   32  13  45 SW13      30.28R WCI  22
DMNS CITY PARK   N/A     33  12  41 SE7       30.28S WCI  27
AURORA         NOT AVBL
FRONT RANGE AP MOSUNNY   39  10  30 SW7       30.29
ERIE MUNI ARPT SUNNY     25  13  59 S3        30.28R
BOULDER MUN AP SUNNY     32  16  51 CALM      30.27R
CENTENNIAL     MOSUNNY   27  12  53 CALM      30.29R
BROOMFIELD     MOSUNNY   30  10  43 CALM      30.27R
FORT COLLINS   SUNNY     25  16  68 E5        30.29R WCI  19
LONGMONT       SUNNY     27  15  58 W3        30.29S
$$

COZ041-046-047-076>085-087-088-061600-
...PIKES PEAK/PALMER DIVIDE AND SOUTHERN FOOTHILLS...

CITY           SKY/WX    TMP DP  RH WIND       PRES   REMARKS
COLO. SPRINGS  MOSUNNY   31  13  47 N9        30.31R WCI  23
A. F. ACADEMY  NOT AVBL
ELLICOTT       NOT AVBL
FALCON         SUNNY     34   8  32 CALM      30.31R
FORT CARSON    NOT AVBL
LIMON          SUNNY     19  10  68 N6        30.31R WCI  11
MONUMENT HILL  SUNNY     30   7  37 SW6       30.29R WCI  24
TRINIDAD       SUNNY     34  17  50 W9        30.32R WCI  27
$$

COZ042>045-048>051-090-091-061600-
...NORTHEAST COLORADO...

CITY           SKY/WX    TMP DP  RH WIND       PRES   REMARKS
GREELEY ARPT   MOSUNNY   25  14  63 CALM      30.29R
AKRON          SUNNY     31  20  63 W13       30.28R WCI  21
BURLINGTON     SUNNY     35  24  64 W7        30.29R WCI  29
WRAY           SUNNY     34  24  68 W12       30.28R WCI  25
STERLING       SUNNY     28  25  86 S8        30.27R WCI  20
HOLYOKE        SUNNY     41  23  48 W13       30.26R
FORT MORGAN    SUNNY     27  20  77 W12       30.29R WCI  16
$$

COZ086-089-092>099-061600-
...SOUTHEAST COLORADO...

CITY           SKY/WX    TMP DP  RH WIND       PRES   REMARKS
PUEBLO         SUNNY     29  21  72 NW6       30.32R WCI  23
LA JUNTA       SUNNY     33  25  72 W8        30.33R WCI  26
LAMAR          SUNNY     31  28  89 SW7       30.32R WCI  24
SPRINGFIELD      N/A     38  27  64 NW6       30.32R
$$



USA.gov is the U.S. government's official web portal to all federal, state and local government web resources and services.